TimePST,TemperatureF,Dew PointF,Humidity,Sea Level PressureIn,VisibilityMPH,Wind Direction,Wind SpeedMPH,Gust SpeedMPH,PrecipitationIn,Events,Conditions,WindDirDegrees,DateUTC
12:00 AM,50.0,42.8,76,29.53,15.0,SSE,20.7,32.2,N/A,,Overcast,160,2012-11-19 08:00:00
1:00 AM,50.0,42.8,76,29.53,10.0,SE,17.3,27.6,N/A,,Overcast,140,2012-11-19 09:00:00
1:04 AM,50.0,41.0,71,29.53,10.0,SE,16.1,25.3,N/A,Rain,Light Rain,140,2012-11-19 09:04:00
2:00 AM,48.2,41.0,76,29.54,6.0,SE,10.4,17.3,N/A,Rain,Light Rain,140,2012-11-19 10:00:00
3:00 AM,44.6,42.8,93,29.54,6.0,NNE,4.6,-,N/A,Rain,Light Rain,20,2012-11-19 11:00:00
4:00 AM,44,43,95,29.52,6,NE,3.5,,,Rain,Light Rain,50,2012-11-19 12:00:00
4:00 AM,44.6,42.8,93,29.52,6.0,East,3.5,-,N/A,Rain,Light Rain,80,2012-11-19 12:00:00
5:00 AM,42.8,42.8,100,29.52,4.0,NNE,5.8,-,N/A,Rain,Rain,30,2012-11-19 13:00:00
6:00 AM,42.8,42.8,100,29.52,4.0,NE,3.5,-,N/A,Rain,Rain,40,2012-11-19 14:00:00
7:00 AM,44.6,42.8,93,29.49,4.0,East,10.4,-,N/A,Rain,Heavy Rain,80,2012-11-19 15:00:00
8:00 AM,44.6,42.8,93,29.50,8.0,East,13.8,-,N/A,Rain,Rain,90,2012-11-19 16:00:00
8:41 AM,44.6,42.8,93,29.49,15.0,ENE,11.5,-,N/A,Rain,Light Rain,70,2012-11-19 16:41:00
9:00 AM,44.6,42.8,93,29.49,15.0,ENE,9.2,-,N/A,Rain,Light Rain,70,2012-11-19 17:00:00
9:33 AM,44.6,42.8,93,29.49,5.0,East,6.9,-,N/A,Rain,Rain,80,2012-11-19 17:33:00
10:00 AM,44,43,96,29.47,10,NE,6.9,,,Rain,Rain,50,2012-11-19 18:00:00
10:00 AM,44.6,42.8,93,29.47,10.0,NE,8.1,-,N/A,Rain,Rain,50,2012-11-19 18:00:00
10:22 AM,44.6,42.8,93,29.47,3.0,NE,5.8,-,N/A,Rain,Rain,50,2012-11-19 18:22:00
10:52 AM,44.6,42.8,93,29.45,4.0,NNE,3.5,-,N/A,Rain,Rain,30,2012-11-19 18:52:00
11:00 AM,42.8,42.8,100,29.43,3.0,NNE,9.2,-,N/A,Rain,Rain,30,2012-11-19 19:00:00
11:08 AM,42.8,42.8,100,29.43,4.0,NE,4.6,-,N/A,Rain,Rain,50,2012-11-19 19:08:00
12:00 PM,44.6,42.8,93,29.40,3.0,NNE,4.6,-,N/A,Rain,Rain,30,2012-11-19 20:00:00
12:09 PM,44.6,42.8,93,29.39,2.2,NE,5.8,-,N/A,Rain,Heavy Rain,50,2012-11-19 20:09:00
12:42 PM,42.8,42.8,100,29.36,4.0,ENE,5.8,-,N/A,Rain,Rain,70,2012-11-19 20:42:00
1:00 PM,44.6,42.8,93,29.37,2.5,Calm,Calm,-,N/A,Rain,Rain,0,2012-11-19 21:00:00
1:24 PM,42.8,42.8,100,29.38,4.0,NNE,3.5,-,N/A,Rain,Rain,20,2012-11-19 21:24:00
1:51 PM,42.8,42.8,100,29.33,5.0,ENE,12.7,-,N/A,Rain,Light Rain,60,2012-11-19 21:51:00
2:00 PM,44.6,42.8,93,29.36,15.0,NNE,8.1,-,N/A,Rain,Light Rain,30,2012-11-19 22:00:00
2:30 PM,44.6,42.8,93,29.34,15.0,NE,10.4,-,N/A,,Overcast,40,2012-11-19 22:30:00
3:00 PM,44.6,41.0,87,29.38,20.0,East,13.8,-,N/A,,Overcast,100,2012-11-19 23:00:00
3:17 PM,44.6,41.0,87,29.38,20.0,East,10.4,17.3,N/A,Rain,Rain Showers,80,2012-11-19 23:17:00
4:00 PM,44,42,89,29.40,3,Calm,Calm,,,Rain,Heavy Rain Showers,,2012-11-20 00:00:00
4:00 PM,44.6,41.0,87,29.40,3.0,Variable,4.6,-,N/A,Rain,Rain Showers,0,2012-11-20 00:00:00
5:00 PM,44.6,42.8,93,29.42,5.0,NNE,5.8,-,N/A,Rain,Light Rain Showers,20,2012-11-20 01:00:00
6:00 PM,44.6,44.6,100,29.44,7.0,North,4.6,-,N/A,,Overcast,350,2012-11-20 02:00:00
7:00 PM,48.2,46.4,93,29.47,8.0,SW,10.4,-,N/A,Rain,Light Rain Showers,230,2012-11-20 03:00:00
7:37 PM,48.2,46.4,93,29.51,10.0,SSW,11.5,-,N/A,,Mostly Cloudy,210,2012-11-20 03:37:00
8:00 PM,46.4,46.4,100,29.53,10.0,SW,10.4,-,N/A,,Mostly Cloudy,230,2012-11-20 04:00:00
9:00 PM,46.4,44.6,93,29.58,10.0,South,8.1,-,N/A,,Mostly Cloudy,190,2012-11-20 05:00:00
10:00 PM,47,42,78,29.62,10,SW,6.9,,,,Partly Cloudy,220,2012-11-20 06:00:00
10:00 PM,46.4,42.8,87,29.62,10.0,SSW,5.8,-,N/A,,Mostly Cloudy,210,2012-11-20 06:00:00
11:00 PM,42.8,41.0,93,29.65,10.0,SW,2.3,-,N/A,,Mostly Cloudy,230,2012-11-20 07:00:00